GFSGBSN_con_3kmhel_075.txt.gz
Helicity
72 70 66 72 82 81 99 110 100 85 71 65 62 53 63 68 69 63 66 70 68 64 60 59 61 59 16 64 74 37 83 53 59 84 57 36 -6 2 16 16 -21 -37 4 -13 62 40 58
76 74 73 73 82 83 86 80 78 85 68 69 57 38 42 64 72 71 69 62 64 69 56 51 60 67 30 27 41 117 85 55 30 58 44 23 10 -28 1 3 -39 -10 -57 -25 21 32 102
84 83 70 79 70 79 77 89 94 79 58 59 68 56 40 33 57 67 85 64 54 56 50 33 35 46 45 136 38 32 15 37 77 34 28 -12 -4 41 3 -45 -44 -97 -84 -74 22 85 28
63 67 66 78 66 69 63 71 85 89 96 75 65 70 63 54 43 59 68 61 50 61 49 35 31 47 41 54 58 64 57 8 -2 54 43 32 3 2 17 -40 -78 -70 -42 25 82 193 63
56 57 57 58 59 69 59 59 65 70 78 76 70 67 71 61 62 61 74 62 53 71 44 21 47 36 34 46 72 54 3 38 32 -5 -28 -0 22 1 13 -8 -52 -17 60 109 109 172 78
55 53 58 56 58 65 64 65 58 54 55 64 72 67 74 79 81 75 96 121 115 66 45 35 72 91 50 82 66 96 37 17 59 46 -14 -0 85 47 -21 2 2 8 31 57 86 38 111
55 55 58 63 60 63 62 59 61 61 52 58 67 60 56 61 74 104 98 86 108 125 102 101 83 120 62 80 149 77 41 37 55 41 77 -9 58 78 3 -2 35 76 40 16 -40 73 67
59 60 61 65 62 61 64 62 60 62 58 48 55 54 49 41 54 83 94 135 84 117 38 72 45 85 27 11 94 66 54 92 105 69 75 7 75 62 17 -21 4 73 15 -5 -24 39 49
65 64 73 76 77 75 69 61 64 57 58 54 49 54 46 41 29 46 52 142 255 278 97 -12 87 162 171 77 118 -0 87 56 103 101 44 85 14 64 13 10 20 27 3 -34 -18 -11 43
63 72 77 82 82 80 77 78 68 66 68 63 57 65 64 66 53 28 109 111 195 187 89 21 52 98 127 158 172 39 21 78 132 74 49 56 21 -30 25 18 16 -13 -19 37 41 24 -53
74 77 82 89 87 84 81 76 62 58 52 50 54 58 74 68 77 32 90 98 257 93 179 70 90 53 68 223 201 91 15 92 119 52 155 106 40 24 -31 -34 64 -9 -56 14 33 7 6
86 89 89 88 87 88 84 78 69 56 47 46 55 62 89 83 69 58 84 41 138 269 261 225 195 204 158 52 97 188 112 74 160 69 15 16 -1 -37 -20 -2 44 32 2 20 -6 -70 -35
79 78 75 68 64 64 63 66 64 60 51 41 59 73 97 106 57 80 29 110 338 444 309 255 272 160 138 130 74 86 153 162 200 191 86 -64 -34 3 -9 44 28 93 83 42 9 22 -5
68 60 51 43 41 41 42 46 50 53 52 54 49 71 104 97 35 76 137 198 434 282 242 233 108 217 118 120 106 20 100 142 114 133 142 106 106 1 -4 49 81 93 114 88 35 53 41
33 27 25 23 27 31 42 48 52 57 62 67 68 111 127 106 51 99 190 246 433 260 249 86 -12 237 142 43 91 103 63 104 144 127 183 179 134 91 10 69 136 82 93 57 45 52 17
27 26 31 38 44 55 58 56 64 66 74 84 140 145 151 84 37 175 260 198 313 151 98 155 143 26 230 118 40 113 142 91 135 110 87 135 155 45 22 85 109 67 45 62 38 18 33
32 36 40 48 53 54 57 63 63 71 75 64 136 173 146 111 83 215 238 334 82 88 69 96 -2 -48 29 111 163 65 108 66 115 111 105 34 134 168 19 94 148 101 51 55 27 80 72
39 41 45 46 55 55 57 51 46 48 53 37 135 200 90 176 206 313 239 268 134 140 34 18 16 56 97 77 70 90 40 72 99 117 115 141 207 86 102 102 187 160 137 93 126 69 82
31 41 37 27 13 -9 -18 -17 -26 -43 50 131 208 241 22 216 267 267 223 -12 11 32 2 6 56 -37 32 166 -2 78 54 97 67 189 222 314 243 130 98 75 111 200 169 127 114 94 66
-38 -45 -31 -22 -22 -25 -22 -22 -16 50 72 122 226 239 313 215 300 200 202 25 -0 81 -14 -41 -42 69 31 92 12 22 133 57 54 163 228 296 193 128 199 189 95 193 154 89 116 159 86
-45 -25 -23 -21 -13 -11 -4 5 62 72 87 137 219 289 382 370 280 261 209 188 88 38 48 34 -78 123 110 21 -0 -70 79 161 146 134 235 209 114 103 87 70 74 90 113 55 72 75 95
-37 -30 -22 -14 -3 13 40 58 80 79 76 132 278 374 370 392 224 202 206 215 112 64 60 43 8 71 98 31 -11 88 87 87 176 116 183 251 66 113 117 66 72 48 55 77 25 60 106
-28 -27 -16 15 67 71 72 77 86 92 90 205 267 282 365 267 314 198 193 193 158 65 37 10 -6 55 74 110 20 -5 10 26 52 130 68 169 191 160 183 166 92 36 57 50 72 41 66
17 30 44 56 67 82 92 88 86 95 113 252 388 386 394 289 213 292 173 142 139 82 27 -0 37 -7 123 60 43 6 14 3 222 199 262 200 277 204 144 151 138 80 53 56 64 37 59
60 58 61 58 53 47 60 76 48 80 53 204 329 465 449 271 254 166 260 149 92 69 10 -3 -4 10 10 107 58 -28 -156 -154 -66 205 247 131 230 215 203 186 178 159 103 98 96 21 25
44 49 55 60 64 73 69 62 72 58 67 181 231 315 338 298 225 163 136 151 164 119 52 -22 -26 1 -3 85 66 -140 -102 27 -36 95 167 154 235 243 274 222 155 76 148 86 62 96 102
48 49 53 60 78 84 81 78 68 60 35 166 294 331 323 271 253 219 184 113 74 100 99 55 -6 15 60 162 131 24 42 -48 -38 71 100 154 178 241 238 243 276 72 39 68 127 98 75
23 47 58 78 102 115 121 97 83 43 62 94 253 316 379 333 270 209 220 171 104 71 112 78 76 54 66 85 198 98 -25 9 -0 18 49 120 111 121 181 207 181 185 132 147 71 50 58
46 49 45 51 60 63 78 98 69 52 40 104 246 362 366 368 197 303 233 160 9 48 102 70 75 45 114 211 193 163 160 90 62 83 94 55 69 130 145 166 241 156 55 156 94 114 115

GFSGBSN_con_3kmhel_078.txt.gz
Helicity
77 85 84 82 90 91 92 89 99 99 92 82 60 47 32 26 42 52 62 65 74 78 77 85 69 76 41 77 75 79 81 95 101 85 54 45 24 60 46 48 10 97 6 -41 7 22 47
84 83 75 73 67 69 67 76 79 81 81 81 58 53 50 28 25 28 43 56 65 71 69 82 77 73 15 44 31 28 119 130 83 100 70 66 24 34 57 46 94 -30 -39 -51 -68 -11 13
81 85 71 76 90 60 62 63 67 70 65 64 62 67 68 54 30 30 32 51 48 65 72 77 67 35 31 86 59 59 105 76 76 64 64 33 6 43 83 50 18 -36 -115 -115 -47 -23 29
71 69 72 72 66 63 71 74 66 71 73 79 77 65 67 83 63 66 76 74 66 94 88 76 47 43 29 44 59 4 97 32 4 19 42 32 13 36 76 51 -1 -101 -65 -10 47 58 94
79 70 64 72 68 62 62 64 68 68 71 62 66 71 65 64 81 83 101 137 141 135 51 49 55 57 47 51 69 115 92 104 75 61 33 37 77 57 64 34 44 -25 4 -6 44 96 125
84 69 68 63 70 71 66 64 68 66 68 58 54 54 59 70 77 87 119 212 193 95 64 79 84 81 46 68 83 85 89 105 106 86 31 66 121 105 80 66 56 26 5 20 12 59 101
79 75 70 64 64 66 63 66 68 64 58 67 66 56 61 61 71 86 100 83 101 138 208 134 122 111 57 92 83 115 126 138 104 117 120 111 124 147 55 35 3 8 -32 43 97 124 102
70 73 57 62 66 61 61 65 65 70 67 63 62 48 45 48 41 59 57 81 102 110 -0 92 20 -8 -6 -5 33 19 132 127 154 98 146 79 52 102 23 -1 -17 -22 -8 77 102 -2 85
80 78 72 62 63 61 51 57 69 79 79 73 73 70 61 60 59 46 37 78 158 143 35 -77 89 138 164 93 117 -38 137 102 134 162 144 127 57 122 48 8 -0 -26 26 125 37 -47 -1
73 87 78 66 66 77 72 72 71 78 77 73 71 68 62 52 65 45 62 62 152 110 23 -15 56 27 142 187 179 48 92 163 157 121 131 134 -24 -9 70 31 -4 -12 24 20 -2 11 -55
72 67 69 64 63 71 73 73 70 72 72 66 58 57 53 50 46 77 52 55 190 82 123 45 77 56 73 159 141 63 113 224 201 176 234 228 97 35 13 21 24 13 91 -12 26 -4 -54
61 80 74 74 76 81 78 79 78 74 73 68 59 57 69 81 63 86 54 91 135 191 161 169 118 124 154 33 107 103 187 269 200 125 147 104 86 71 32 12 13 36 43 55 60 23 -38
73 68 70 67 68 72 71 74 76 71 65 62 55 61 83 93 74 100 62 121 285 265 253 182 226 284 153 114 83 134 112 213 306 242 152 140 6 58 44 55 21 44 96 62 -18 34 -28
57 65 66 61 65 68 65 66 59 55 53 54 58 66 93 83 75 143 114 269 324 270 242 255 263 399 385 211 124 60 86 178 107 240 146 229 110 66 21 27 65 93 107 116 38 5 18
72 74 68 62 64 60 54 48 42 40 42 52 62 102 111 64 92 170 189 387 444 318 330 255 3 186 207 253 227 241 137 124 150 113 219 140 145 94 42 59 78 71 168 132 141 64 49
61 63 61 58 51 45 41 37 38 46 51 43 98 105 91 66 108 197 245 278 302 267 195 168 108 43 153 232 277 312 313 174 99 119 125 153 137 72 109 90 63 119 118 176 173 83 33
56 52 47 41 38 37 39 42 50 52 49 32 118 136 78 132 142 192 267 280 121 142 207 108 79 82 -0 113 147 149 191 306 142 98 141 91 108 137 105 93 128 167 179 163 119 149 72
34 34 34 36 36 37 40 44 52 56 50 63 147 159 114 251 198 262 174 268 151 139 196 41 59 56 29 32 -1 85 77 126 129 170 114 160 110 89 61 174 110 97 132 137 171 167 122
10 19 27 31 35 40 42 46 55 59 46 137 172 203 70 204 217 186 166 59 92 113 124 134 95 24 40 -1 -31 -73 -29 -3 -88 111 169 91 153 159 63 58 102 174 99 162 202 188 137
16 24 29 33 36 41 44 49 62 56 29 86 196 149 247 208 290 153 183 143 64 17 11 25 37 26 20 88 86 6 -0 -56 83 62 186 61 197 150 143 146 255 280 138 75 146 209 157
21 24 23 32 32 27 3 14 3 -4 14 107 172 239 270 252 240 195 148 133 43 79 79 15 5 26 2 24 71 141 5 -63 -20 158 121 53 170 223 122 117 214 256 399 92 147 190 184
-26 -28 -39 -46 -46 -44 -34 -26 -14 1 35 151 232 246 311 258 146 210 127 73 101 55 59 49 19 42 7 -37 58 92 137 -125 -106 75 208 260 132 177 138 109 130 174 295 148 116 173 121
-53 -57 -58 -55 -54 -48 -42 -36 -22 25 66 170 228 260 279 170 249 113 110 81 120 75 62 76 38 43 4 -12 18 23 -11 -61 -58 -52 161 86 233 126 104 52 97 107 115 140 82 84 105
11 -5 -17 -26 -32 -32 -34 -24 14 77 59 181 267 314 357 170 204 114 154 176 102 106 88 50 41 44 79 64 134 53 44 -104 -91 24 52 178 227 116 75 93 93 128 65 70 88 93 86
-15 -15 -13 -5 2 5 11 23 60 88 72 165 254 341 348 226 301 150 133 135 42 24 60 75 -12 -25 1 75 121 113 84 -96 -53 -48 35 -30 221 182 156 99 80 158 173 110 127 107 55
42 37 37 38 42 41 42 50 56 70 84 132 184 295 317 303 185 296 217 110 146 106 32 26 60 -43 -9 62 110 75 72 35 -75 -45 -39 10 57 79 104 99 33 -80 81 128 71 107 67
26 30 34 37 43 48 53 55 50 48 50 148 218 240 357 304 313 284 318 226 144 84 108 69 30 24 4 56 14 -17 34 -47 -58 -181 25 97 166 215 265 126 115 102 145 137 150 139 90
39 43 47 53 53 52 57 55 56 58 52 115 132 234 301 298 232 234 261 212 175 113 111 40 81 71 115 96 52 39 11 -13 -74 4 -61 29 64 203 175 140 67 123 69 149 131 137 93
-7 -0 26 54 66 71 68 69 64 59 54 75 159 138 287 297 192 294 159 233 112 -4 86 61 64 64 102 132 127 93 70 11 -74 -96 -11 27 88 63 65 30 48 125 65 191 335 200 207

GFSGBSN_con_3kmhel_081.txt.gz
Helicity
86 75 73 76 75 82 94 90 94 93 85 78 83 74 62 47 50 43 44 56 50 64 60 72 93 87 44 68 56 86 102 89 90 94 93 95 126 105 65 31 54 132 108 43 -6 -14 53
90 91 99 106 99 95 82 83 90 89 87 78 81 87 100 91 70 52 58 57 59 66 70 74 88 72 12 50 34 58 71 88 87 105 98 100 91 72 63 52 63 70 75 65 -31 1 50
77 80 77 85 96 87 100 102 93 81 86 75 75 81 74 76 94 82 83 94 83 76 87 87 80 38 39 56 56 70 68 87 105 84 84 67 93 163 134 71 34 20 -11 -69 -30 -13 9
89 80 79 85 89 88 92 76 80 88 88 83 60 61 74 75 78 93 112 120 120 126 115 94 59 20 35 38 50 -2 50 46 59 55 64 46 113 155 154 74 43 5 -6 43 -5 -38 9
89 91 88 81 83 96 95 86 80 82 82 81 72 64 54 64 81 97 132 143 182 122 91 81 81 55 38 49 65 132 120 66 111 64 73 113 144 145 166 126 49 55 29 26 -14 -24 -22
100 92 85 88 91 95 98 97 85 83 75 74 67 62 54 55 61 82 115 192 95 56 154 125 134 83 63 39 91 84 53 87 127 123 128 143 171 183 194 197 100 93 80 85 45 10 -21
107 98 78 90 81 83 106 105 99 92 80 77 67 62 71 54 55 80 99 31 69 89 172 173 155 108 61 84 62 90 112 96 74 179 185 191 190 215 214 158 119 77 124 48 5 75 4
69 101 87 83 79 68 81 101 95 96 90 91 71 62 57 61 64 89 3 -6 21 37 -5 59 64 50 2 69 45 3 119 110 143 137 198 202 71 148 116 85 55 45 70 -10 -19 33 -8
85 71 90 100 83 79 73 87 94 98 93 83 72 63 64 61 56 47 40 -7 66 41 -42 -83 66 117 120 119 105 -4 110 115 109 159 175 219 159 90 183 100 82 42 85 3 89 118 31
113 113 90 86 92 86 71 82 82 83 91 81 76 70 64 69 59 74 72 38 63 20 -45 -36 -4 -6 70 194 84 50 61 173 137 104 148 137 47 95 130 75 138 25 52 23 57 83 26
90 91 88 70 86 77 76 82 84 75 76 77 82 81 81 73 61 90 46 53 75 7 39 28 44 26 41 62 138 99 125 224 196 171 164 180 99 99 110 29 139 57 27 71 25 -9 19
98 94 72 53 72 81 80 72 75 74 79 75 72 74 75 84 81 94 21 90 73 73 75 142 96 103 93 55 60 35 84 231 204 173 136 95 74 94 111 46 134 33 86 129 147 131 -32
75 65 64 86 81 69 59 63 65 62 62 63 62 63 81 91 93 83 56 149 131 141 179 194 285 279 239 181 166 104 46 114 289 208 96 139 46 115 103 108 115 145 168 164 142 106 -42
68 74 59 46 39 56 57 54 64 63 63 64 59 65 104 70 82 95 109 245 174 150 158 210 247 312 298 292 200 198 124 146 145 218 110 171 72 90 107 93 186 205 211 240 126 118 -15
53 53 57 48 48 55 59 62 56 52 45 44 54 103 112 39 104 131 236 289 285 213 297 300 331 296 280 288 247 253 234 196 77 149 183 77 103 87 110 183 127 153 228 148 184 156 99
37 55 54 53 54 51 50 49 46 43 39 39 96 105 104 81 118 180 285 257 272 306 317 322 316 276 299 331 320 198 259 203 232 225 96 157 104 90 95 116 110 138 138 222 269 128 118
32 37 58 58 57 59 51 38 35 34 40 12 108 139 85 169 163 231 274 341 284 291 301 257 139 72 56 41 155 181 169 261 167 314 212 143 74 99 78 140 164 217 155 188 176 201 136
33 32 42 49 45 50 38 36 33 40 39 45 129 162 107 182 222 278 212 287 258 181 192 196 151 113 101 109 -4 137 73 100 42 -4 259 240 126 138 -3 78 135 123 175 215 223 259 180
8 14 18 24 28 28 32 32 35 43 38 108 145 153 178 184 245 225 185 102 131 178 184 162 104 45 27 83 109 -31 -9 -108 -61 -68 91 252 227 154 115 32 3 147 210 122 173 211 207
-8 6 14 20 25 26 31 34 40 42 27 87 132 209 240 273 263 168 132 94 112 39 59 139 157 139 89 28 53 72 44 70 14 26 -11 -31 105 160 156 125 92 125 185 187 148 171 200
11 9 18 30 30 35 44 52 48 47 20 88 166 204 273 204 242 152 133 93 100 101 92 37 73 25 49 2 -46 -27 98 157 8 31 -28 -16 44 152 151 92 93 141 204 249 252 155 164
9 16 22 35 49 46 46 38 50 54 12 95 234 310 294 277 131 148 130 94 93 77 123 104 67 66 39 43 35 11 71 62 -43 58 -28 18 44 189 148 146 114 116 115 115 227 252 144
-14 -5 -26 -24 6 27 40 44 50 44 36 138 182 181 267 163 186 148 170 121 67 63 51 20 56 58 62 67 48 33 109 97 63 18 -90 -78 64 203 109 151 271 240 65 101 121 186 284
11 29 38 18 -9 -28 -36 -38 -41 -23 8 168 194 211 168 87 47 40 62 86 104 108 72 63 26 74 54 92 151 98 48 -2 79 14 33 -89 -48 147 214 187 230 90 8 62 80 45 168
45 28 31 24 16 20 8 -7 -17 -26 -5 31 162 206 140 12 63 19 2 56 15 51 105 117 49 40 32 21 74 70 75 148 82 -3 -13 114 5 -7 161 238 209 102 46 70 93 107 118
3 5 -14 -24 -8 12 16 17 14 20 -8 139 198 308 298 134 17 149 89 40 101 62 60 107 150 29 -16 -25 45 65 74 86 4 -133 39 13 -25 -63 -15 135 88 51 6 105 166 70 105
33 26 17 14 12 16 29 38 37 43 46 125 204 229 318 206 169 224 218 179 90 75 51 47 81 56 110 93 96 63 69 107 44 -31 0 80 52 11 -89 67 125 112 123 87 139 115 81
19 19 23 23 21 23 28 43 52 47 40 118 165 185 249 283 187 223 216 265 232 101 87 49 114 113 116 158 142 136 72 76 86 22 41 42 34 8 -77 99 81 65 83 85 68 53 42
23 29 31 33 39 35 42 52 54 52 53 63 157 188 187 240 232 172 146 183 235 174 96 97 87 124 84 141 167 164 142 139 81 -31 53 41 5 -64 -9 -43 425 165 54 24 81 98 184

GFSGBSN_con_3kmhel_087.txt.gz
Helicity
53 68 75 78 80 79 89 110 106 100 95 92 93 89 85 90 95 96 95 111 105 91 73 65 71 72 72 130 78 91 79 98 122 99 84 102 137 129 115 109 125 137 107 104 74 59 31
46 64 77 66 71 75 83 90 105 102 89 90 97 106 102 92 99 96 98 94 83 99 101 51 34 48 58 86 60 97 136 110 123 118 111 124 95 94 116 123 125 111 72 53 33 14 22
65 61 53 76 92 83 79 85 86 90 90 92 94 92 99 100 89 93 98 103 122 95 60 58 48 52 92 120 101 101 105 78 94 112 124 117 121 124 160 134 102 103 61 28 32 51 51
100 89 77 64 59 88 89 92 91 95 102 96 93 87 83 82 85 77 76 97 114 95 61 35 35 75 68 54 82 58 60 85 56 75 102 138 148 131 148 166 140 111 89 49 73 76 103
91 94 104 100 103 89 76 78 81 104 109 113 106 92 90 80 73 78 92 92 72 17 48 41 84 87 46 66 46 83 89 94 110 128 107 198 154 151 173 162 130 140 88 75 54 97 129
151 129 101 84 92 87 84 75 73 82 106 99 95 95 96 82 76 80 106 100 -11 9 36 27 91 78 59 105 97 101 63 47 103 143 211 181 222 227 224 231 149 143 121 104 74 139 167
116 121 126 118 95 68 82 82 82 82 100 112 100 99 103 91 81 84 61 1 36 3 53 37 65 75 91 139 118 85 66 69 107 143 217 249 288 257 172 222 175 104 91 79 57 77 115
70 80 96 92 92 102 35 69 93 83 84 102 106 106 102 97 80 89 23 -18 -18 -34 -12 55 43 33 10 31 67 115 132 93 123 130 165 236 211 116 128 131 98 104 91 58 1 68 66
45 26 34 54 63 71 91 63 75 116 101 94 100 103 107 105 102 60 66 57 22 -16 -75 -49 18 58 61 91 98 -18 128 178 117 127 116 173 110 111 119 140 108 81 78 63 37 69 48
57 61 61 51 42 66 84 104 84 92 101 88 99 113 122 121 100 90 74 43 26 -28 -59 -21 11 69 65 65 95 70 103 147 149 80 109 67 90 65 75 94 133 86 69 64 50 78 76
65 60 57 45 36 47 71 57 69 70 97 108 111 117 127 119 112 108 82 68 52 -12 30 68 89 36 62 75 130 127 60 230 145 169 160 104 72 60 98 67 79 54 52 61 68 86 77
67 79 80 78 60 51 38 47 56 86 76 74 69 113 135 115 85 83 68 99 67 40 25 118 91 111 98 86 89 80 83 82 141 141 148 104 91 56 73 109 75 40 42 111 156 141 76
105 79 68 65 74 71 55 21 43 64 57 30 63 108 130 110 114 81 101 142 116 85 170 161 186 177 113 133 96 63 36 38 102 101 111 127 96 99 92 80 102 89 126 166 166 173 117
77 55 54 66 68 59 58 51 33 32 43 52 68 102 107 83 59 82 122 220 155 113 160 179 152 183 141 185 176 143 61 63 110 115 117 52 72 103 118 91 104 72 124 184 110 108 117
62 63 64 46 65 65 46 27 30 44 53 55 88 101 94 63 62 99 187 244 152 120 177 201 181 141 152 163 156 146 142 73 125 187 105 102 75 125 74 95 141 126 147 82 152 175 144
45 42 40 36 45 33 50 34 22 14 27 36 123 113 92 71 79 136 217 224 220 234 265 214 176 182 154 202 156 186 167 158 110 217 165 145 58 74 147 129 108 129 70 153 173 154 136
35 32 39 32 23 23 13 5 22 28 24 69 139 139 85 142 144 169 193 241 265 265 266 213 199 170 185 150 161 153 200 153 141 150 138 155 64 110 126 121 129 145 119 171 173 188 143
31 21 9 -13 -13 8 33 46 42 30 25 95 141 168 81 119 175 184 144 150 225 244 223 195 154 85 96 99 60 25 50 104 107 116 104 139 72 30 106 86 79 135 187 153 138 142 134
7 9 -8 7 15 37 41 16 20 -6 34 142 171 142 57 117 131 126 132 68 101 140 190 179 140 117 91 47 63 26 24 32 55 98 154 142 97 36 62 98 165 151 197 173 155 141 70
13 -1 3 11 35 24 23 11 31 20 45 128 164 171 127 83 102 84 83 68 68 36 46 80 115 107 93 82 87 100 121 112 118 149 116 80 101 79 68 133 138 210 254 222 167 183 131
20 5 10 8 -1 -5 -4 25 4 7 42 131 157 182 131 128 71 84 77 71 24 71 61 54 83 41 76 67 111 127 102 123 82 58 100 101 80 104 96 105 123 94 114 200 167 105 139
3 4 -3 6 5 -9 -12 -11 -7 5 39 125 202 210 179 114 112 55 76 58 44 25 39 57 60 42 30 97 109 122 112 139 148 157 173 185 154 130 87 63 67 94 119 101 86 73 102
4 15 9 2 6 11 16 13 2 19 59 106 159 170 132 96 28 99 76 43 62 68 34 33 39 64 74 53 48 65 76 70 60 85 105 117 105 80 26 90 82 106 90 66 43 60 88
15 19 10 1 3 10 4 2 -1 6 56 146 198 202 156 62 57 34 3 23 30 54 45 50 41 61 71 99 81 62 50 44 67 55 50 105 106 89 109 35 85 61 220 132 60 62 41
15 12 10 7 11 12 3 9 -13 -5 18 177 194 186 175 56 51 42 33 36 44 37 56 75 69 86 64 25 104 94 69 59 61 41 25 81 94 85 88 30 28 67 76 55 48 101 129
-2 -1 1 -7 -22 -45 -47 -27 -5 -22 -16 110 176 201 174 55 -6 32 18 10 68 79 94 80 53 90 92 88 86 141 71 64 59 74 9 46 68 109 90 58 37 32 104 77 61 60 210
30 11 6 3 0 7 15 21 16 -5 -29 25 211 157 178 -33 6 21 119 77 81 53 65 59 66 73 85 113 112 127 108 106 99 97 79 72 82 117 78 68 63 36 21 23 35 51 214
8 -3 -6 -11 -8 13 5 5 0 1 8 -61 -13 -6 54 -5 -19 11 -16 -2 23 60 110 21 110 69 79 99 113 93 31 36 40 25 42 55 54 95 111 86 39 17 -23 29 -5 -5 147
0 3 -10 -12 40 17 -8 5 22 29 4 40 -52 21 -20 86 30 -49 -13 -35 -32 20 53 81 98 22 40 71 77 93 114 97 64 52 65 49 133 88 74 78 33 46 -6 -108 -59 10 46